Flag for Spain Weather past 2 weeks in Santander, Spain

Now
50 °F

Light rain. Partly cloudy.


Feels Like: 50 °F
Forecast: 49 / 51 °F
Wind: No wind

Location: Santander / Parayas

Current Time: Mar 3, 2015 at 9:54:55 PM

Latest Report: Mar 3, 2015 at 9:30 PM


Visibility: 3 mi

Pressure: 30.36 "Hg

Humidity: 94%

Dew point: 48 °F

Location of SantanderLocation

Historic Weather in Santander — Graph

°F

Santander temperature yesterday

Maximum temperature yesterday: 55 °F (at 5:30 AM)
Minimum temperature yesterday: 50 °F (at 3:30 PM)
Average temperature yesterday: 53 °F

Past Weeks' High & Low Weather Summary

 TemperatureHumidityPressure
High70 °F (Mar 1, 1:30 PM)100% (Feb 23, 11:30 AM)30.74 "Hg (Feb 23, 11:30 AM)
Low34 °F (Feb 19, 5:30 AM)44% (Feb 19, 5:30 PM)29.80 "Hg (Feb 20, 10:30 PM)
Average50 °F81%30.24 "Hg
* Reported Feb 16 8:00 PM — Mar 3 8:30 PM, Santander, Weather by CustomWeather, © 2015

Note: Actual official high and low records may vary slightly from our data, if they occured in-between our weather recording intervals... More about our weather records

Advertising

Santander weather history for previous 24 hours

 ConditionsComfort  
Time TempWeatherWind HumidityBarometerVisibility
8:30 PM
Tue, Mar 3
50 °FDrizzle. Mostly cloudy.7 mph94%30.36 "Hg2 mi
8:00 PM50 °FLight rain. Fog.1 mph100%30.36 "Hg2 mi
7:30 PM52 °FLight rain. Mostly cloudy.2 mph94%30.33 "Hg4 mi
7:00 PM52 °FLight rain. Fog.1 mph94%30.33 "Hg3 mi
6:30 PM50 °FRain. Mostly cloudy.2 mph100%30.33 "Hg3 mi
6:00 PM52 °FLight rain. Mostly cloudy.6 mph94%30.30 "Hg6 mi
5:30 PM52 °FLight rain. Low clouds.7 mph94%30.30 "Hg4 mi
5:00 PM52 °FLight rain. Mostly cloudy.6 mph94%30.30 "Hg4 mi
4:30 PM52 °FMore clouds than sun.6 mph94%30.27 "HgN/A
4:00 PM52 °FBroken clouds.5 mph94%30.27 "Hg5 mi
3:30 PM52 °FLight rain. Cloudy.5 mph94%30.27 "Hg5 mi
3:00 PM52 °FLight rain. More clouds than sun.6 mph94%30.27 "Hg5 mi
2:30 PM52 °FLow clouds.7 mph94%30.27 "HgN/A
2:00 PM54 °FLow clouds.6 mph88%30.27 "HgN/A
1:30 PM54 °FOvercast.7 mph88%30.27 "HgN/A
1:00 PM54 °FOvercast.7 mph88%30.27 "HgN/A
12:30 PM54 °FOvercast.8 mph88%30.27 "HgN/A
12:00 PM54 °FOvercast.6 mph94%30.27 "Hg5 mi
11:30 AM54 °FOvercast.5 mph88%30.27 "Hg5 mi
11:00 AM54 °FPartly sunny.No wind88%30.27 "Hg4 mi
10:30 AM52 °FPartly sunny.No wind94%30.24 "Hg4 mi
10:00 AM52 °FPartly sunny.No wind94%30.24 "Hg4 mi
9:30 AM52 °FOvercast.No wind94%30.24 "Hg4 mi
9:00 AM50 °FOvercast.No wind100%30.24 "Hg4 mi
8:30 AM50 °FOvercast.No wind94%30.24 "Hg4 mi
8:00 AM50 °FOvercast.No wind94%30.24 "Hg4 mi
7:30 AM50 °FOvercast.No wind94%30.24 "Hg4 mi
7:00 AM50 °FOvercast.No wind94%30.24 "Hg4 mi
6:30 AM50 °FOvercast.No wind94%30.24 "Hg4 mi
6:00 AM50 °FOvercast.No wind94%30.24 "Hg4 mi
5:30 AM50 °FOvercast.No wind94%30.21 "Hg4 mi
11:00 PM
Mon, Mar 2
50 °FPassing clouds.No wind94%30.30 "HgN/A
10:30 PM52 °FPassing clouds.No wind88%30.30 "HgN/A
10:00 PM52 °FPassing clouds.No wind88%30.30 "HgN/A
9:30 PM52 °FPassing clouds.No wind94%30.30 "HgN/A
9:00 PM52 °FPassing clouds.1 mph88%30.30 "HgN/A
Weather by CustomWeather, © 2015

See weather overviewHow to use our weather pages